FW0837 Weather Reports


Display with metric or nautical units.
time (UTC)temp
F
wind
direction
speed
MPH
gust
MPH
rain 1hr
in
rain 24hr
in
rain mn
in
humidity
%
barometer
mb
20260903053039 62 54 0.0 2.0 0.00 0.00 0.00 92 1018.8
20260903052538 62 54 0.0 3.0 0.00 0.00 0.00 92 1018.9
20260903052038 62 54 0.0 3.0 0.00 0.00 0.00 92 1018.8
20260903051537 63 54 0.0 1.0 0.00 0.00 0.00 92 1018.7
20260903051036 63 54 0.0 1.0 0.00 0.00 0.00 92 1018.9
20260903050535 63 54 0.0 1.0 0.00 0.00 0.00 92 1019.0
20260903050035 63 54 0.0 2.0 0.00 0.00 0.00 92 1019.0
20260903045535 62 54 0.0 2.0 0.00 0.00 0.00 92 1019.0
20260903045038 63 54 0.0 3.0 0.00 0.00 0.00 92 1019.1
20260903044540 63 54 0.0 3.0 0.00 0.00 0.00 92 1019.0
20260903044037 63 54 1.0 2.0 0.00 0.00 0.00 92 1019.1
20260903043534 63 54 0.0 2.0 0.00 0.00 0.00 92 1019.3
20260903043041 63 54 0.0 3.0 0.00 0.00 0.00 92 1019.1
20260903042532 63 54 1.0 3.0 0.00 0.00 0.00 92 1019.2
20260903042035 63 54 0.0 3.0 0.00 0.00 0.00 92 1019.2
20260903041531 63 54 0.0 2.0 0.00 0.00 0.00 92 1019.2
20260903041030 63 54 1.0 2.0 0.00 0.00 0.00 92 1019.3
20260903040530 63 54 1.0 2.0 0.00 0.00 0.00 92 1019.4
20260903040029 63 54 0.0 2.0 0.00 0.00 0.00 92 1019.5
20260903035530 63 54 0.0 4.0 0.00 0.00 0.00 92 1019.5
20260903035028 63 54 0.0 4.0 0.00 0.00 0.00 92 1019.5
20260903034539 63 54 1.0 3.0 0.00 0.00 0.00 91 1019.5
20260903034028 63 54 0.0 2.0 0.00 0.00 0.00 91 1019.5
20260903033527 63 54 0.0 2.0 0.00 0.00 0.00 91 1019.6
20260903033027 63 54 0.0 2.0 0.00 0.00 0.00 91 1019.9
20260903032530 63 54 0.0 2.0 0.00 0.00 0.00 92 1019.9
20260903032028 63 54 0.0 2.0 0.00 0.00 0.00 91 1020.0
20260903031527 63 54 1.0 2.0 0.00 0.00 0.00 91 1019.7
20260903031026 63 54 0.0 1.0 0.00 0.00 0.00 92 1019.9
20260903030529 63 54 0.0 1.0 0.00 0.00 0.00 92 1019.9
20260903030026 63 54 0.0 1.0 0.00 0.00 0.00 91 1019.9
20260903025528 63 54 0.0 0.0 0.00 0.00 0.00 91 1020.0
20260903025026 63 54 0.0 0.0 0.00 0.00 0.00 92 1020.0
20260903024525 63 54 0.0 1.0 0.00 0.00 0.00 91 1019.9
20260903024025 63 54 0.0 2.0 0.00 0.00 0.00 91 1020.0
20260903023525 63 54 0.0 2.0 0.00 0.00 0.00 91 1020.0
20260903023025 63 54 0.0 2.0 0.00 0.00 0.00 91 1020.1
20260903022525 63 54 0.0 2.0 0.00 0.00 0.00 91 1020.0
20260903022024 63 54 0.0 2.0 0.00 0.00 0.00 91 1020.1
20260903021524 63 54 0.0 2.0 0.00 0.00 0.00 91 1020.3
20260903021024 63 53 0.0 2.0 0.00 0.00 0.00 91 1020.4
20260903020527 63 54 0.0 2.0 0.00 0.00 0.00 91 1020.5
20260903020045 63 54 0.0 1.0 0.00 0.00 0.00 91 1020.5
20260903015527 63 54 0.0 1.0 0.00 0.00 0.00 91 1020.6
20260903015024 63 54 0.0 0.0 0.00 0.00 0.00 91 1020.7
20260903014524 63 55 0.0 1.0 0.00 0.00 0.00 91 1020.8
20260903014024 63 54 0.0 3.0 0.00 0.00 0.00 91 1020.7
20260903013526 63 54 0.0 4.0 0.00 0.00 0.00 91 1020.6
20260903013024 63 54 2.0 5.0 0.00 0.00 0.00 91 1020.2
20260903012522 63 69 2.0 5.0 0.00 0.00 0.00 91 1019.8
20260903012025 63 68 2.0 5.0 0.00 0.00 0.00 91 1020.0
20260903011522 63 72 1.0 4.0 0.00 0.00 0.00 91 1020.3
20260903011021 63 73 1.0 3.0 0.00 0.00 0.00 91 1020.3
20260903010521 63 74 0.0 3.0 0.00 0.00 0.00 91 1020.4
20260903010021 63 73 1.0 4.0 0.00 0.00 0.00 91 1020.3
20260903005521 63 73 0.0 4.0 0.00 0.00 0.00 91 1020.3
20260903005020 63 73 1.0 4.0 0.00 0.00 0.00 90 1020.3
20260903004521 63 75 1.0 8.0 0.00 0.00 0.00 90 1020.3
20260903004024 64 75 1.0 8.0 0.00 0.00 0.00 90 1020.0
20260903003521 64 50 3.0 7.0 0.00 0.00 0.00 90 1020.1
20260903003020 64 78 2.0 6.0 0.00 0.00 0.00 90 1020.3
20260903002520 64 78 2.0 6.0 0.00 0.00 0.00 90 1020.4
20260903002020 64 78 1.0 8.0 0.00 0.00 0.00 90 1020.5
20260903001519 64 81 3.0 8.0 0.00 0.00 0.00 90 1020.3
20260903001019 64 89 2.0 6.0 0.00 0.00 0.00 90 1020.6
20260903000519 64 67 0.0 4.0 0.00 0.00 0.00 90 1020.6
20260903000019 64 69 1.0 4.0 0.00 0.00 0.00 90 1020.7
20260902235519 64 69 0.0 4.0 0.00 0.00 0.00 89 1020.8
20260902235018 64 65 1.0 5.0 0.00 0.00 0.00 89 1020.8
20260902234520 64 64 2.0 5.0 0.00 0.00 0.00 89 1020.8
20260902234019 64 66 2.0 6.0 0.00 0.00 0.00 89 1020.8
20260902233519 64 62 1.0 6.0 0.00 0.00 0.00 89 1020.8
20260902233019 64 60 3.0 9.0 0.00 0.00 0.00 89 1020.9
20260902232519 64 87 3.0 9.0 0.00 0.00 0.00 89 1021.1
20260902232018 65 84 2.0 4.0 0.00 0.00 0.00 88 1021.2
20260902231519 65 85 2.0 3.0 0.00 0.00 0.00 89 1021.3
20260902231018 65 86 1.0 6.0 0.00 0.00 0.00 88 1021.4
20260902230517 65 86 2.0 6.0 0.00 0.00 0.00 88 1021.4
20260902230017 65 83 3.0 6.0 0.00 0.00 0.00 88 1021.2
20260902225518 65 88 1.0 6.0 0.00 0.00 0.00 87 1021.4
20260902225018 65 93 1.0 8.0 0.00 0.00 0.00 87 1021.4
20260902224518 66 66 2.0 6.0 0.00 0.00 0.00 87 1021.3
20260902224017 66 81 2.0 6.0 0.00 0.00 0.00 87 1021.3
20260902223517 66 81 1.0 5.0 0.00 0.00 0.00 86 1021.4
20260902223022 66 62 1.0 4.0 0.00 0.00 0.00 86 1021.6
20260902222517 66 63 1.0 5.0 0.00 0.00 0.00 86 1021.6
20260902222016 66 65 1.0 6.0 0.00 0.00 0.00 86 1021.5
20260902221518 67 67 2.0 5.0 0.00 0.00 0.00 86 1021.3
20260902221016 67 58 2.0 8.0 0.00 0.00 0.00 85 1021.4
20260902220516 67 81 3.0 8.0 0.00 0.00 0.00 84 1021.5
20260902220020 67 74 2.0 7.0 0.00 0.00 0.00 85 1021.6
20260902215517 67 50 1.0 8.0 0.00 0.00 0.00 84 1021.6
20260902215015 67 75 2.0 8.0 0.00 0.00 0.00 84 1021.7
20260902214516 68 93 2.0 6.0 0.00 0.00 0.00 84 1021.6
20260902214016 68 84 2.0 9.0 0.00 0.00 0.00 83 1021.5
20260902213515 68 69 2.0 6.0 0.00 0.00 0.00 83 1021.6
20260902213015 68 77 3.0 10.0 0.00 0.00 0.00 82 1021.6
20260902212516 69 69 4.0 10.0 0.00 0.00 0.00 82 1021.5
20260902212018 69 88 3.0 9.0 0.00 0.00 0.00 82 1021.4
20260902211514 69 84 1.0 10.0 0.00 0.00 0.00 82 1021.2
20260902211018 69 97 2.0 10.0 0.00 0.00 0.00 81 1021.2
20260902210514 69 97 4.0 9.0 0.00 0.00 0.00 81 1021.2
20260902210019 69 96 5.0 9.0 0.00 0.00 0.00 81 1021.4
20260902205518 69 52 3.0 9.0 0.00 0.00 0.00 80 1021.5
20260902205014 69 64 2.0 9.0 0.00 0.00 0.00 80 1021.3
20260902204514 70 66 4.0 9.0 0.00 0.00 0.00 79 1021.4
20260902204014 70 65 2.0 9.0 0.00 0.00 0.00 81 1021.4
20260902203519 70 83 4.0 10.0 0.00 0.00 0.00 79 1021.5
20260902203014 70 88 5.0 10.0 0.00 0.00 0.00 79 1021.6
20260902202513 70 82 4.0 9.0 0.00 0.00 0.00 78 1021.8
20260902202013 71 87 2.0 8.0 0.00 0.00 0.00 80 1021.9
20260902201518 69 90 4.0 10.0 0.00 0.00 0.00 81 1021.9
20260902201012 69 92 3.0 10.0 0.00 0.00 0.00 81 1021.9
20260902200514 69 83 2.0 6.0 0.00 0.00 0.00 81 1022.1
20260902200012 69 86 2.0 10.0 0.00 0.00 0.00 80 1022.3
20260902195511 69 60 3.0 9.0 0.00 0.00 0.00 80 1022.2
20260902195011 70 57 3.0 9.0 0.00 0.00 0.00 80 1022.2
20260902194516 70 77 1.0 5.0 0.00 0.00 0.00 81 1022.2
20260902194011 70 77 2.0 8.0 0.00 0.00 0.00 80 1022.1
20260902193511 70 62 5.0 8.0 0.00 0.00 0.00 80 1022.3
20260902193011 70 141 1.0 6.0 0.00 0.00 0.00 80 1022.4
20260902192511 70 74 3.0 10.0 0.00 0.00 0.00 80 1022.5
20260902192013 69 81 4.0 10.0 0.00 0.00 0.00 80 1022.4
20260902191514 70 85 2.0 7.0 0.00 0.00 0.00 80 1022.6
20260902191010 71 88 2.0 7.0 0.00 0.00 0.00 80 1022.7
20260902190509 70 33 2.0 5.0 0.00 0.00 0.00 81 1022.6
20260902190010 70 77 0.0 10.0 0.00 0.00 0.00 81 1022.5
20260902185510 69 78 6.0 10.0 0.00 0.00 0.00 80 1022.5
20260902185013 69 93 4.0 9.0 0.00 0.00 0.00 79 1022.3
20260902184509 70 87 3.0 10.0 0.00 0.00 0.00 79 1022.2
20260902184008 70 55 3.0 10.0 0.00 0.00 0.00 81 1022.2
20260902183508 70 53 4.0 8.0 0.00 0.00 0.00 79 1022.2
20260902183009 70 89 3.0 7.0 0.00 0.00 0.00 79 1022.2
20260902182507 70 108 3.0 7.0 0.00 0.00 0.00 81 1022.2
20260902182007 70 83 3.0 9.0 0.00 0.00 0.00 81 1022.1
20260902181507 70 73 4.0 11.0 0.00 0.00 0.00 80 1022.2
20260902181009 69 72 3.0 11.0 0.00 0.00 0.00 82 1022.3
20260902180506 70 106 3.0 11.0 0.00 0.00 0.00 82 1022.4
20260902180007 69 54 2.0 6.0 0.00 0.00 0.00 82 1022.5
20260902175505 69 72 3.0 6.0 0.00 0.01 0.00 82 1022.5
20260902175007 69 86 2.0 6.0 0.00 0.01 0.00 82 1022.5
20260902174505 70 115 3.0 8.0 0.00 0.01 0.00 82 1022.5
20260902174004 70 100 2.0 8.0 0.00 0.01 0.00 82 1022.5
20260902173504 70 23 1.0 6.0 0.00 0.01 0.00 82 1022.5
20260902173003 70 79 2.0 8.0 0.00 0.01 0.00 82 1022.6
20260902172503 69 92 1.0 8.0 0.00 0.01 0.00 82 1022.6
20260902172003 69 91 1.0 9.0 0.00 0.01 0.00 81 1022.7
20260902171503 69 82 3.0 9.0 0.00 0.01 0.00 81 1022.6
20260902171002 69 57 3.0 8.0 0.00 0.01 0.00 81 1022.7
20260902170502 69 57 2.0 10.0 0.00 0.01 0.00 82 1022.7
20260902170002 69 86 1.0 6.0 0.00 0.01 0.00 82 1022.6
20260902165503 69 87 2.0 8.0 0.00 0.01 0.00 82 1022.7
20260902165002 69 96 3.0 8.0 0.00 0.01 0.00 82 1022.7
20260902164501 69 60 1.0 8.0 0.00 0.01 0.00 82 1022.5
20260902164001 69 87 2.0 6.0 0.00 0.01 0.00 82 1022.6
20260902163601 69 77 2.0 5.0 0.00 0.01 0.00 83 1022.6
20260902163501 69 77 1.0 5.0 0.00 0.01 0.00 83 1022.6
20260902163101 69 77 1.0 5.0 0.00 0.01 0.00 83 1022.6
20260902162600 69 77 3.0 5.0 0.00 0.01 0.00 82 1022.7
20260902162102 69 82 0.0 7.0 0.00 0.01 0.00 83 1022.7
20260902161559 69 83 1.0 4.0 0.00 0.01 0.00 82 1022.7
20260902161101 69 83 1.0 8.0 0.00 0.01 0.00 82 1022.9
20260902160557 69 83 3.0 8.0 0.00 0.01 0.00 81 1022.9
20260902160116 69 79 2.0 8.0 0.00 0.01 0.00 82 1023.1
20260902155557 69 83 2.0 9.0 0.00 0.01 0.00 81 1023.1
20260902155057 70 58 4.0 9.0 0.00 0.01 0.00 80 1023.0
20260902154559 70 103 2.0 9.0 0.00 0.01 0.00 81 1023.2
20260902154056 70 58 1.0 6.0 0.00 0.01 0.00 80 1023.1
20260902153556 71 27 3.0 9.0 0.00 0.01 0.00 80 1023.1
20260902153057 70 118 1.0 9.0 0.00 0.01 0.00 82 1023.1
20260902152552 70 104 5.0 9.0 0.00 0.01 0.00 82 1023.1
20260902152051 69 78 2.0 6.0 0.00 0.01 0.00 84 1023.1
20260902151555 68 86 2.0 8.0 0.00 0.01 0.00 83 1023.2
20260902151049 68 85 2.0 7.0 0.00 0.01 0.00 84 1023.4
20260902150547 68 65 2.0 8.0 0.00 0.01 0.00 84 1023.3
20260902150046 68 99 1.0 8.0 0.00 0.01 0.00 85 1023.2
20260902145545 68 87 2.0 6.0 0.00 0.03 0.00 85 1023.2
20260902145044 68 74 2.0 7.0 0.00 0.03 0.00 86 1023.2
20260902144544 67 66 1.0 7.0 0.00 0.03 0.00 87 1023.1
20260902144043 67 93 2.0 7.0 0.00 0.03 0.00 87 1023.0
20260902143542 67 41 2.0 7.0 0.00 0.03 0.00 87 1023.0
20260902143044 67 73 2.0 4.0 0.00 0.03 0.00 88 1022.8
20260902142540 67 183 1.0 8.0 0.00 0.03 0.00 89 1022.8
20260902142040 66 49 2.0 9.0 0.00 0.03 0.00 89 1022.7
20260902141537 66 55 2.0 11.0 0.00 0.03 0.00 89 1022.6
20260902141036 66 95 5.0 11.0 0.00 0.03 0.00 90 1022.7
20260902140536 66 93 2.0 6.0 0.00 0.03 0.00 90 1022.8
20260902140038 65 113 3.0 6.0 0.00 0.03 0.00 90 1022.6
20260902135534 65 14 3.0 6.0 0.00 0.18 0.00 91 1022.7
20260902135033 65 70 1.0 11.0 0.00 0.18 0.00 91 1022.5
20260902134538 65 79 2.0 8.0 0.00 0.18 0.00 92 1022.4
20260902134031 65 55 3.0 7.0 0.00 0.18 0.00 92 1022.5
20260902133533 64 85 3.0 8.0 0.00 0.18 0.00 92 1022.6
20260902133029 64 71 3.0 8.0 0.00 0.18 0.00 92 1022.4
20260902132528 64 10 1.0 5.0 0.00 0.18 0.00 92 1022.7
20260902132027 64 79 1.0 9.0 0.00 0.18 0.00 92 1022.7
20260902131526 63 79 1.0 9.0 0.00 0.18 0.00 92 1022.7
20260902131028 63 88 1.0 4.0 0.00 0.18 0.00 93 1022.8
20260902130525 63 91 2.0 8.0 0.00 0.18 0.00 92 1022.7
20260902130024 63 69 1.0 6.0 0.00 0.18 0.00 93 1022.7
20260902125524 63 73 2.0 6.0 0.00 0.45 0.00 93 1022.6
20260902125023 63 70 0.0 3.0 0.00 0.45 0.00 93 1022.7
20260902124522 63 70 1.0 5.0 0.00 0.45 0.00 93 1022.5
20260902124021 63 73 2.0 5.0 0.00 0.45 0.00 93 1022.7
20260902123520 63 73 2.0 5.0 0.00 0.45 0.00 93 1022.7
20260902123025 62 57 2.0 4.0 0.00 0.45 0.00 93 1022.7
20260902122519 62 56 1.0 4.0 0.00 0.45 0.00 93 1022.9
20260902122019 62 52 1.0 5.0 0.00 0.45 0.00 93 1022.9
20260902121518 62 52 1.0 5.0 0.00 0.45 0.00 93 1022.8
20260902121018 62 79 1.0 2.0 0.00 0.45 0.00 93 1022.9
20260902120518 62 79 1.0 2.0 0.00 0.45 0.00 93 1022.8
20260902120017 62 79 0.0 4.0 0.00 0.45 0.00 93 1022.8
20260902115516 62 79 0.0 3.0 0.00 0.45 0.00 93 1022.8
20260902115016 62 79 1.0 3.0 0.00 0.45 0.00 93 1022.8
20260902114516 62 79 0.0 3.0 0.00 0.45 0.00 93 1022.8
20260902114017 62 79 0.0 5.0 0.00 0.45 0.00 93 1022.9
20260902113514 62 77 1.0 5.0 0.00 0.45 0.00 93 1022.8
20260902113014 62 77 0.0 5.0 0.00 0.45 0.00 93 1022.9
20260902112513 62 75 0.0 3.0 0.00 0.45 0.00 93 1022.7
20260902112013 62 75 0.0 2.0 0.00 0.45 0.00 93 1022.7
20260902111533 62 74 0.0 2.0 0.00 0.45 0.00 93 1022.5
20260902111011 62 75 0.0 3.0 0.00 0.45 0.00 93 1022.6
20260902110511 62 75 1.0 3.0 0.00 0.45 0.00 93 1022.4
20260902110031 62 75 0.0 3.0 0.00 0.45 0.00 93 1022.2
20260902105510 62 75 0.0 2.0 0.00 0.45 0.00 93 1022.2
20260902105009 62 75 0.0 3.0 0.00 0.45 0.00 93 1022.2
20260902104509 62 75 0.0 3.0 0.00 0.45 0.00 93 1022.1
20260902104007 62 75 0.0 3.0 0.00 0.45 0.00 93 1022.0
20260902103507 62 75 0.0 3.0 0.00 0.45 0.00 93 1022.0
20260902103007 62 75 0.0 2.0 0.00 0.45 0.00 93 1021.9
20260902102508 62 75 0.0 2.0 0.00 0.45 0.00 93 1022.0
20260902102004 62 75 0.0 1.0 0.00 0.45 0.00 93 1022.0
20260902101504 62 75 0.0 1.0 0.00 0.45 0.00 93 1022.1
20260902101003 62 75 0.0 2.0 0.00 0.45 0.00 93 1022.0
20260902100505 62 75 0.0 3.0 0.00 0.45 0.00 93 1021.9
20260902100001 62 75 0.0 3.0 0.00 0.45 0.00 93 1021.7
20260902095501 62 75 0.0 3.0 0.00 0.45 0.00 93 1021.5
20260902095002 62 75 1.0 5.0 0.00 0.45 0.00 93 1021.5
20260902094501 62 76 2.0 5.0 0.00 0.45 0.00 93 1021.5
20260902094002 62 77 0.0 2.0 0.00 0.45 0.00 93 1021.6
20260902093501 62 77 0.0 2.0 0.00 0.45 0.00 93 1021.7
20260902093101 62 77 0.0 2.0 0.00 0.45 0.00 93 1021.6
20260902092600 62 77 0.0 2.0 0.00 0.45 0.00 93 1021.4
20260902092100 62 77 0.0 2.0 0.00 0.45 0.00 93 1021.6
20260902091602 62 77 0.0 2.0 0.00 0.45 0.00 93 1021.4
20260902091059 62 77 0.0 0.0 0.00 0.45 0.00 93 1021.3
20260902090559 62 77 0.0 0.0 0.00 0.45 0.00 93 1021.4
20260902090059 62 77 0.0 1.0 0.00 0.45 0.00 93 1021.5
20260902085558 62 77 0.0 2.0 0.00 0.45 0.00 93 1021.4
20260902085059 62 77 0.0 4.0 0.00 0.45 0.00 93 1021.3
20260902084604 62 77 1.0 4.0 0.00 0.45 0.00 93 1021.2
20260902084058 62 77 1.0 4.0 0.00 0.45 0.00 93 1021.0
20260902083558 62 77 1.0 2.0 0.00 0.45 0.00 93 1021.2
20260902083107 62 77 0.0 2.0 0.00 0.45 0.00 93 1021.3
20260902082600 62 77 0.0 0.0 0.00 0.45 0.00 93 1021.4
20260902082057 62 77 0.0 0.0 0.00 0.45 0.00 93 1021.4
20260902081556 62 77 0.0 0.0 0.00 0.45 0.00 93 1021.5
20260902081056 62 77 0.0 0.0 0.00 0.45 0.00 93 1021.5
20260902080556 62 77 0.0 1.0 0.00 0.45 0.00 93 1021.5
20260902080112 62 77 0.0 2.0 0.00 0.45 0.00 93 1021.5
20260902075556 62 77 0.0 2.0 0.00 0.45 0.00 93 1021.6
20260902075055 62 77 0.0 0.0 0.00 0.45 0.00 93 1021.6
20260902074555 62 77 0.0 1.0 0.00 0.45 0.00 93 1021.6
20260902074056 62 77 0.0 1.0 0.00 0.45 0.00 93 1021.5
20260902073555 62 77 0.0 1.0 0.00 0.45 0.00 93 1021.6
20260902073055 62 77 0.0 1.0 0.00 0.45 0.00 93 1021.6
20260902072555 62 77 0.0 1.0 0.00 0.45 0.00 93 1021.6
20260902072053 62 77 0.0 1.0 0.00 0.45 0.00 93 1021.6
20260902071553 62 77 0.0 1.0 0.00 0.45 0.00 93 1021.4
20260902071056 62 77 0.0 3.0 0.00 0.45 0.00 93 1021.4
20260902070552 62 77 0.0 3.0 0.00 0.45 0.00 93 1021.3
20260902070052 62 77 0.0 0.0 0.00 0.45 0.00 93 1021.2
20260902065552 62 77 0.0 0.0 0.00 0.45 0.00 93 1021.3
20260902065052 62 77 0.0 0.0 0.00 0.45 0.00 93 1021.4
20260902064554 62 77 0.0 0.0 0.00 0.45 0.00 93 1021.3
20260902064051 62 77 0.0 0.0 0.00 0.45 0.00 93 1021.4
20260902063551 62 77 0.0 0.0 0.00 0.45 0.00 93 1021.3
20260902063051 62 77 0.0 0.0 0.00 0.45 0.00 93 1021.3
20260902062551 62 77 0.0 0.0 0.00 0.45 0.00 93 1021.3
20260902062052 62 77 0.0 0.0 0.00 0.45 0.00 93 1021.3
20260902061610 62 77 0.0 0.0 0.00 0.45 0.00 93 1021.3
20260902061052 62 77 0.0 1.0 0.00 0.45 0.00 93 1021.3
20260902060550 62 77 0.0 1.0 0.00 0.45 0.00 93 1021.3
20260902060052 62 77 0.0 1.0 0.00 0.45 0.00 93 1021.3
20260902055549 62 77 0.0 1.0 0.00 0.45 0.00 93 1021.4
20260902055049 62 77 0.0 0.0 0.00 0.45 0.00 93 1021.4
20260902054551 62 77 0.0 0.0 0.00 0.45 0.00 93 1021.4
20260902054052 62 77 0.0 0.0 0.00 0.45 0.00 93 1021.4
20260902053549 62 77 0.0 0.0 0.00 0.45 0.00 93 1021.4